Voltar ao catálogo

LIJIAN-1 Y8 STAGE 4

AtivoSSO
NORAD 66053·DEBRIS·🇨🇳 China
Este nome de satélite ainda não foi confirmado por fontes oficiais.

Lançado Oct 19, 2025 de Jiuquan Satellite Launch Center

Loading…

Próximas Passagens (próximas 24 horas)

TLE

AtualizadoSource: Space-Track

Época: Sep 14, 2026, 14:53 UTC

1 66053U 25234A   26257.62051650  .00052061  00000-0  97208-3 0  9996
2 66053  97.4185 330.9542 0008829 186.3701 173.7439 15.48567429 50689

Acompanhe LIJIAN-1 Y8 STAGE 4 em tempo real com AllMySat

Download on the App Store